Wind_Speed
44 48 50 45 49 48 49 53 53 50 52 52 48 52 49 50 39 36 35 34 36 39 38 39 41 41 39 37 36 37 34 34 35 37 39 41 41 40 40 41 40 39 39 40
49 53 54 50 47 50 50 55 55 55 56 58 55 53 48 50 42 38 36 38 42 40 39 40 38 38 40 38 36 35 38 41 39 36 38 39 39 41 42 41 41 40 42 42
54 54 53 49 50 51 54 55 57 59 58 57 61 57 54 52 48 44 44 44 42 43 43 42 42 45 46 44 44 41 39 40 42 37 32 34 35 36 38 38 41 42 46 48
50 46 47 50 49 52 52 49 53 55 57 60 63 65 59 58 56 58 54 51 52 49 49 50 49 44 46 47 44 42 43 42 42 43 44 44 42 42 43 44 43 43 45 48
44 44 44 46 49 50 53 55 54 56 59 61 60 64 62 58 59 58 57 55 51 49 39 38 40 42 43 48 47 45 47 47 47 51 52 49 50 49 47 47 48 49 49 49
43 46 48 49 50 51 53 53 55 55 56 59 59 58 61 60 60 62 65 61 46 32 32 39 36 38 40 43 44 50 57 60 57 59 58 57 56 54 52 52 53 53 54 54
48 47 49 49 50 50 50 53 57 60 60 63 57 64 65 64 64 64 61 62 59 57 55 55 54 51 50 50 54 60 65 65 60 58 61 62 63 64 59 56 56 57 58 60
51 49 52 57 54 55 55 57 59 63 64 66 64 70 68 68 67 67 69 69 68 67 66 64 64 64 64 64 68 70 72 73 72 70 71 71 70 67 67 68 66 63 64 66
54 55 58 57 56 56 58 58 58 62 62 65 70 69 66 65 67 67 69 70 72 74 75 72 73 74 71 67 68 68 69 69 72 72 69 69 71 73 73 74 73 73 70 69
53 56 54 55 55 56 56 56 56 50 55 63 65 70 70 60 63 64 64 68 67 68 69 72 73 70 66 64 64 66 67 69 69 70 69 68 65 65 68 72 72 71 74 74
55 56 55 57 56 55 57 57 58 59 62 65 64 66 65 62 58 65 70 66 65 66 66 69 74 76 66 64 63 62 65 65 68 68 68 67 68 69 69 74 73 74 75 76
53 57 56 55 54 57 59 58 56 56 58 61 61 64 55 61 68 72 72 71 65 65 69 74 74 68 65 65 68 69 71 69 70 74 73 70 70 72 74 72 71 73 77 77
55 58 60 60 58 59 59 59 59 59 63 67 70 70 65 66 57 58 58 62 58 63 70 71 68 68 69 68 74 78 74 76 75 80 80 77 75 75 80 79 79 73 73 75
60 61 61 62 61 60 62 60 61 62 65 68 69 70 63 63 63 67 52 56 67 75 77 76 70 73 70 83 83 85 86 86 84 80 86 88 87 85 85 84 83 83 78 77
59 61 60 62 62 62 64 64 63 66 67 72 73 75 70 70 78 80 84 87 87 82 82 84 93 98 100 99 95 95 94 90 87 88 89 91 90 89 89 92 90 88 85 86
61 65 65 68 65 66 70 72 73 74 75 78 80 83 80 84 85 87 89 89 91 91 92 95 99 101 104 103 102 100 97 95 94 93 93 94 93 92 92 92 93 93 94 93
64 66 68 74 69 72 80 75 78 80 81 82 85 85 85 86 88 90 91 90 91 91 91 90 91 91 93 94 96 98 99 99 98 99 100 100 99 99 98 98 98 97 97 96
67 66 70 77 74 81 78 79 81 83 84 81 77 77 74 74 75 78 77 78 80 78 79 80 81 82 84 87 91 94 97 99 100 102 103 103 104 105 106 107 107 107 107 105
70 70 74 77 79 83 81 77 77 73 74 67 68 66 66 66 65 61 62 65 63 65 67 69 72 74 75 77 80 82 85 89 93 95 95 96 97 99 101 104 107 109 112 112
72 73 75 80 81 81 77 72 69 59 66 60 58 59 59 60 61 56 57 59 59 60 62 64 66 66 68 71 73 75 78 81 84 87 89 90 91 93 95 97 98 100 103 106
72 73 75 77 74 73 69 66 60 58 55 54 54 54 55 55 54 54 52 55 57 58 58 61 63 65 67 71 72 73 75 78 81 83 85 87 89 91 92 92 93 94 95 96
73 72 73 68 65 65 62 58 53 50 51 52 52 52 53 53 53 55 56 56 57 59 61 63 64 66 69 73 75 77 78 81 82 83 84 87 89 91 92 94 93 95 96 97
66 63 64 63 60 55 54 51 49 50 50 48 51 51 53 53 54 56 58 58 58 61 63 66 68 69 70 72 74 76 77 79 80 80 80 80 81 82 84 85 86 88 89 92
59 58 60 55 52 48 50 48 48 48 50 49 52 52 54 56 56 57 58 60 61 62 64 65 66 67 66 67 69 72 74 76 75 71 67 64 64 64 66 66 66 65 66 70
51 54 50 55 50 49 47 48 48 49 50 51 52 54 56 57 57 58 59 59 60 61 62 61 62 63 62 65 66 67 68 66 63 57 49 49 56 60 62 62 62 63 63 67
42 46 50 51 46 51 51 48 48 51 52 53 53 55 56 57 58 59 58 58 57 56 57 58 60 62 61 58 57 57 57 59 50 43 45 53 55 51 50 52 54 58 61 60
Wind_Direction
278 281 282 281 278 280 282 284 283 286 285 283 284 286 289 291 289 285 284 276 272 272 273 272 275 280 279 275 273 276 271 270 269 271 272 273 273 271 270 268 262 258 259 262
277 278 279 276 275 276 277 278 280 282 283 284 285 282 284 286 291 290 280 276 277 275 276 278 278 280 280 276 276 271 267 275 275 269 270 267 269 271 269 269 267 260 257 258
274 274 274 269 270 270 272 276 279 282 283 283 285 284 285 287 288 285 283 280 279 276 277 276 275 279 278 274 277 275 268 268 267 267 255 264 271 272 276 273 272 269 266 263
270 267 266 270 271 272 274 276 279 281 282 285 285 286 286 290 294 290 288 290 286 283 283 279 278 271 275 272 268 265 261 265 266 261 264 263 264 269 270 270 272 273 274 273
270 267 263 264 268 270 274 277 276 276 277 281 282 287 296 297 292 292 292 298 298 298 296 293 288 283 273 267 266 266 265 275 272 266 271 266 266 270 268 267 266 267 268 269
268 270 270 271 272 273 276 277 278 278 279 277 284 289 287 289 291 296 298 296 297 290 282 282 273 271 262 260 260 260 270 275 274 273 273 271 270 268 265 262 260 261 263 263
272 274 273 273 274 277 278 281 282 280 280 283 286 280 280 283 289 288 288 288 287 284 284 281 274 267 261 258 258 261 268 273 273 268 267 267 270 273 268 264 264 264 260 258
275 273 275 277 278 279 281 280 278 281 280 279 276 279 282 284 284 283 284 282 282 282 281 278 275 273 271 270 270 270 272 272 268 266 267 267 266 266 267 268 264 263 265 263
279 276 279 282 283 284 282 284 282 281 279 278 281 283 282 287 285 283 280 279 280 280 281 281 280 280 279 276 274 273 272 271 273 274 272 266 264 264 263 264 264 266 263 261
276 279 281 280 281 282 283 282 282 279 270 275 279 285 288 287 282 283 283 282 280 278 277 278 278 277 274 272 270 271 273 273 273 274 273 272 268 260 257 256 258 259 259 258
279 278 282 280 285 283 281 283 284 282 279 281 283 287 292 287 281 285 286 283 279 276 276 273 269 270 268 269 269 268 269 275 278 276 271 266 266 263 259 255 257 251 250 250
279 281 283 282 284 284 284 286 282 278 282 281 277 274 274 272 277 278 278 279 276 277 278 277 274 264 264 268 267 269 271 275 279 281 275 268 268 264 255 253 253 253 251 252
281 283 285 288 285 286 282 283 281 279 277 276 276 279 279 282 282 271 267 269 263 273 273 270 266 259 261 261 266 268 270 275 277 279 275 269 270 269 260 254 252 255 257 254
280 281 283 283 284 283 281 279 278 278 278 280 277 281 280 279 270 264 257 262 268 270 271 266 264 260 261 274 275 270 270 272 276 276 275 272 270 268 266 264 260 255 259 265
277 277 278 279 280 279 277 276 278 277 278 277 281 279 282 276 269 268 267 269 267 265 266 267 270 273 275 278 282 281 279 280 278 277 275 273 273 271 268 268 268 269 270 269
279 281 281 281 282 281 280 281 284 283 284 282 281 279 279 274 273 272 270 270 271 271 270 268 268 269 272 276 276 276 277 276 275 275 274 273 272 271 271 271 270 269 269 269
280 282 284 284 285 283 280 290 285 284 283 283 281 280 277 274 274 273 273 274 274 274 274 274 274 274 275 275 274 274 275 276 276 276 275 275 273 272 271 270 270 270 271 268
281 284 284 286 286 283 290 287 287 288 286 286 284 283 282 280 278 278 278 277 277 278 278 278 277 276 276 276 276 276 276 276 276 276 275 275 274 273 272 271 270 269 268 267
283 285 286 286 288 290 290 290 289 288 286 285 286 285 284 282 281 281 282 280 281 280 279 279 278 278 279 279 278 278 278 278 278 278 278 278 277 276 275 274 273 271 269 267
286 288 289 292 293 292 295 293 292 292 288 291 286 284 285 285 284 285 283 283 281 280 279 280 280 281 282 281 280 280 280 280 280 280 280 279 278 277 276 274 272 271 270 269
287 288 289 291 289 288 291 291 291 287 292 286 286 285 285 285 287 287 285 284 284 285 284 284 285 286 285 285 284 284 283 283 283 282 282 281 280 279 278 276 274 273 271 269
288 292 292 287 283 284 289 288 287 287 287 286 286 287 288 290 291 291 291 292 292 292 291 290 290 289 289 289 289 289 288 286 286 286 285 284 283 282 280 279 276 274 272 269
289 289 282 283 283 287 287 284 286 283 283 283 284 287 290 292 292 292 292 293 292 291 290 290 291 292 293 294 293 293 292 291 290 290 291 290 288 286 284 282 280 278 275 272
288 287 281 281 281 285 283 284 282 282 284 286 288 289 291 293 293 294 293 292 291 292 292 293 294 295 296 295 295 295 294 294 296 298 297 296 294 292 290 288 286 283 281 278
289 284 289 280 284 281 283 282 283 283 285 287 289 291 292 292 292 292 292 291 292 293 295 296 297 299 300 298 298 296 296 298 300 300 303 307 308 299 293 289 287 285 284 281
286 284 279 284 288 287 284 285 287 287 288 288 288 289 290 291 292 292 292 292 294 294 296 299 301 302 301 299 298 300 302 302 302 300 305 312 313 307 305 300 293 291 287 284
Height
5797 5794 5791 5794 5789 5789 5786 5781 5781 5784 5781 5778 5780 5773 5774 5770 5781 5780 5779 5776 5773 5771 5771 5770 5768 5766 5765 5765 5766 5766 5766 5768 5767 5766 5766 5764 5763 5763 5764 5763 5763 5762 5763 5763
5786 5782 5782 5782 5782 5777 5775 5770 5770 5770 5769 5767 5766 5764 5766 5762 5767 5769 5769 5766 5765 5764 5766 5764 5763 5760 5758 5758 5758 5756 5755 5756 5757 5757 5757 5756 5755 5755 5753 5752 5753 5754 5752 5753
5776 5772 5768 5770 5770 5768 5764 5762 5761 5758 5758 5758 5751 5752 5752 5754 5757 5756 5755 5755 5757 5756 5755 5754 5754 5753 5750 5749 5749 5749 5748 5747 5745 5744 5745 5747 5747 5746 5746 5744 5742 5743 5742 5742
5763 5764 5760 5756 5756 5755 5756 5756 5753 5751 5748 5744 5740 5737 5742 5743 5742 5736 5737 5742 5740 5741 5742 5744 5744 5741 5740 5739 5737 5735 5735 5735 5736 5736 5735 5733 5734 5736 5737 5735 5733 5733 5732 5731
5753 5753 5750 5749 5747 5744 5744 5742 5744 5742 5738 5735 5733 5729 5730 5729 5728 5726 5726 5723 5724 5724 5725 5727 5728 5727 5728 5727 5725 5725 5724 5724 5723 5721 5723 5722 5721 5721 5720 5722 5721 5721 5720 5718
5742 5741 5741 5739 5738 5736 5734 5732 5729 5727 5727 5726 5726 5725 5726 5719 5715 5716 5716 5714 5715 5715 5716 5717 5717 5717 5716 5714 5713 5713 5712 5710 5711 5710 5707 5708 5707 5705 5705 5706 5705 5704 5705 5705
5727 5728 5728 5727 5724 5723 5722 5720 5716 5714 5714 5714 5718 5712 5714 5712 5711 5709 5706 5704 5703 5703 5702 5701 5702 5702 5702 5701 5701 5699 5697 5694 5694 5694 5693 5692 5690 5689 5688 5686 5686 5688 5687 5688
5715 5720 5714 5712 5715 5714 5712 5709 5705 5697 5700 5698 5704 5696 5705 5697 5699 5695 5690 5691 5688 5684 5684 5683 5682 5681 5682 5682 5681 5679 5678 5677 5676 5676 5675 5674 5673 5671 5670 5669 5668 5668 5670 5669
5701 5707 5697 5699 5700 5701 5697 5698 5692 5682 5685 5676 5686 5684 5690 5687 5678 5678 5675 5673 5673 5669 5663 5662 5662 5661 5659 5658 5658 5657 5656 5655 5655 5653 5652 5652 5652 5652 5651 5649 5649 5648 5647 5648
5687 5687 5691 5687 5689 5689 5682 5682 5678 5676 5665 5661 5667 5669 5671 5674 5661 5659 5658 5656 5655 5651 5649 5644 5642 5640 5637 5636 5635 5634 5635 5635 5634 5632 5631 5629 5628 5628 5628 5628 5628 5628 5628 5626
5670 5666 5684 5670 5676 5673 5667 5665 5663 5658 5655 5644 5642 5646 5658 5650 5648 5644 5639 5636 5633 5630 5628 5625 5621 5619 5618 5617 5614 5612 5610 5610 5612 5611 5611 5609 5609 5608 5607 5607 5607 5608 5607 5606
5655 5646 5651 5663 5661 5654 5651 5651 5648 5641 5639 5633 5627 5626 5641 5635 5632 5627 5624 5618 5612 5609 5607 5604 5602 5599 5598 5596 5595 5593 5592 5590 5590 5592 5591 5588 5588 5588 5587 5586 5587 5587 5587 5586
5640 5633 5630 5637 5648 5638 5633 5634 5632 5628 5622 5617 5613 5611 5618 5615 5612 5606 5601 5599 5596 5592 5589 5587 5582 5579 5578 5576 5575 5573 5571 5569 5567 5569 5570 5570 5569 5568 5566 5564 5563 5562 5564 5564
5625 5624 5621 5617 5620 5623 5615 5615 5615 5610 5602 5598 5595 5596 5603 5599 5594 5588 5584 5580 5579 5574 5573 5567 5563 5559 5556 5555 5555 5552 5550 5548 5547 5543 5544 5545 5544 5545 5543 5542 5541 5540 5539 5541
5611 5607 5609 5604 5602 5602 5598 5596 5597 5591 5589 5580 5578 5575 5581 5579 5567 5566 5566 5563 5560 5556 5553 5550 5545 5539 5535 5529 5525 5524 5522 5519 5519 5518 5517 5516 5516 5515 5516 5515 5515 5515 5515 5515
5595 5587 5588 5585 5588 5582 5572 5577 5576 5570 5568 5561 5556 5548 5556 5543 5543 5538 5536 5536 5532 5529 5527 5524 5521 5518 5513 5507 5502 5498 5496 5496 5494 5492 5491 5490 5490 5489 5488 5487 5487 5487 5486 5487
5579 5572 5569 5559 5567 5558 5548 5565 5549 5545 5546 5539 5527 5527 5527 5520 5515 5512 5510 5507 5506 5502 5499 5496 5494 5491 5488 5485 5480 5476 5471 5467 5464 5462 5461 5459 5459 5459 5458 5456 5456 5456 5455 5457
5559 5559 5548 5539 5542 5527 5542 5535 5527 5521 5517 5513 5504 5500 5496 5493 5491 5489 5485 5483 5482 5479 5475 5471 5469 5467 5463 5459 5453 5450 5448 5440 5436 5433 5430 5428 5426 5425 5424 5421 5421 5420 5419 5421
5542 5540 5527 5521 5516 5508 5518 5512 5505 5497 5494 5490 5482 5478 5475 5470 5469 5473 5465 5461 5462 5458 5454 5448 5444 5443 5440 5434 5428 5425 5421 5413 5408 5402 5400 5397 5392 5390 5389 5388 5386 5385 5382 5384
5524 5517 5508 5501 5490 5484 5490 5483 5481 5475 5466 5469 5465 5460 5457 5453 5450 5455 5449 5444 5441 5438 5434 5430 5427 5424 5420 5413 5408 5404 5399 5392 5384 5377 5372 5367 5363 5359 5355 5353 5352 5350 5345 5345
5503 5499 5491 5483 5472 5466 5470 5467 5463 5458 5459 5452 5448 5446 5442 5439 5436 5433 5433 5427 5423 5420 5418 5413 5409 5405 5398 5390 5386 5383 5377 5369 5361 5355 5348 5341 5335 5328 5324 5320 5318 5313 5311 5309
5483 5479 5472 5463 5458 5454 5456 5450 5449 5444 5440 5436 5433 5430 5425 5424 5422 5417 5413 5410 5406 5401 5396 5392 5389 5385 5377 5369 5363 5358 5353 5343 5336 5330 5324 5315 5306 5298 5290 5283 5283 5277 5274 5272
5467 5467 5450 5449 5441 5443 5436 5435 5434 5429 5425 5425 5419 5418 5413 5410 5407 5402 5398 5394 5390 5385 5379 5374 5369 5364 5357 5348 5338 5332 5324 5315 5309 5303 5296 5287 5277 5269 5260 5252 5247 5242 5238 5236
5447 5448 5431 5432 5432 5431 5424 5422 5417 5415 5411 5410 5405 5404 5399 5395 5391 5387 5382 5377 5372 5367 5361 5356 5350 5344 5339 5329 5319 5310 5300 5291 5284 5278 5270 5261 5252 5245 5236 5227 5220 5214 5209 5205
5438 5423 5424 5410 5418 5413 5413 5408 5404 5401 5399 5397 5392 5388 5384 5380 5376 5372 5367 5361 5355 5350 5344 5338 5333 5327 5320 5310 5302 5290 5282 5275 5268 5260 5252 5243 5234 5224 5215 5206 5198 5192 5187 5180
5425 5415 5404 5399 5404 5395 5398 5397 5391 5385 5385 5382 5378 5374 5370 5366 5361 5356 5351 5345 5340 5335 5329 5324 5317 5310 5302 5294 5285 5277 5269 5260 5252 5246 5238 5230 5218 5207 5197 5188 5181 5171 5164 5160